Location: LDNL
(36.4545°S, 141.6685°E)
Time: 10:36:58
(UTC+10:00)

Tiros 1 despin weight - Pass Details

Date: 16 August 2022
Orbit: 590 x 639 km, 48.2° (Epoch: 23 September)

Event Time Altitude Azimuth Distance (km) Brightness Sun altitude
Rises 23:02:44 0° 292° (WNW) 2,875 - -58.8°
Reaches altitude 10° 23:05:04 10° 287° (WNW) 1,983 - -59.2°
Maximum altitude 23:09:31 52° 210° (SSW) 787 - -59.8°
Drops below altitude 10° 23:14:05 10° 133° (SE) 2,028 - -60.5°
Sets 23:16:30 0° 127° (SE) 2,947 - -60.8°
